Language: 


Des rapports , des résumés tant et plus, au choix de chacun....


Données statistiques de la station
Quotidien Rapport Février 4, 2017 Unités:  Anglais    Métrique   les deux
« Précédent Jour
Suivant Jour »
Quotidien Hebdomadaire Mensuel Annuel Actuel
  Haut: Bas: Moyen:
Température: 44.8 °F 32 °F 41.9 °F
Pt de rosée: 43.3 °F 37.9 °F 41 °F
Humidité: 98 % 0 % 96 %
Vitesse du vent: 11.4 mph 0 mph 3.7 mph
Rafales: 15.2 mph - -
Vent:- - South
Pression: 29.6 in 0 in -
Précipitation: 0.26 in    
Historical Graphs
 
 
Données statistiques pour Février 4, 2017
Heure Température Point de rosée Pression Vent Vitesse du vent Refales Humidité Pluie (taux horaire)
00:01 44.8 °F 43.3 °F 29.4 in WSW 7.4 mph 11.2 mph 95 % 0 in
00:06 44.4 °F 43.2 °F 29.4 in SW 9.6 mph 11.2 mph 95 % 0 in
00:11 44.4 °F 43.2 °F 29.4 in SW 7.6 mph 10.7 mph 95 % 0 in
00:16 44.2 °F 43 °F 29.4 in SW 10.7 mph 12.3 mph 95 % 0 in
00:21 44.4 °F 43.2 °F 29.4 in SW 7.4 mph 13 mph 95 % 0 in
00:26 44.2 °F 42.6 °F 29.4 in WSW 5.8 mph 13 mph 94 % 0 in
00:31 44.2 °F 42.6 °F 29.4 in WSW 7.2 mph 11.4 mph 94 % 0 in
00:36 44.2 °F 42.6 °F 29.4 in SW 8.9 mph 10.1 mph 94 % 0 in
00:41 44.1 °F 42.4 °F 29.5 in SW 7.6 mph 12.1 mph 94 % 0 in
00:46 44.1 °F 42.1 °F 29.5 in WSW 9.4 mph 13 mph 93 % 0 in
00:51 44.1 °F 42.1 °F 29.5 in SSW 10.1 mph 13 mph 93 % 0 in
00:56 44.1 °F 42.1 °F 29.5 in SSW 10.5 mph 12.1 mph 93 % 0 in
01:01 44.1 °F 42.1 °F 29.5 in SW 6.5 mph 15.2 mph 93 % 0 in
01:06 44.1 °F 42.1 °F 29.5 in West 5.8 mph 15.2 mph 93 % 0 in
01:11 44.1 °F 42.1 °F 29.5 in SSW 11.4 mph 12.3 mph 93 % 0 in
01:16 44.1 °F 42.1 °F 29.5 in SSW 6.5 mph 12.8 mph 93 % 0 in
01:21 44.1 °F 42.1 °F 29.5 in WSW 5.8 mph 12.8 mph 93 % 0 in
01:26 44.1 °F 42.1 °F 29.5 in South 6.5 mph 10.5 mph 93 % 0 in
01:31 43.9 °F 41.5 °F 29.5 in SSW 5.8 mph 10.5 mph 92 % 0 in
01:36 43.9 °F 41.5 °F 29.5 in SW 10.5 mph 10.5 mph 92 % 0 in
01:41 43.5 °F 41.5 °F 29.5 in SSW 8.1 mph 11.2 mph 92 % 0 in
01:46 43.9 °F 41.9 °F 29.5 in SSW 6.5 mph 11.2 mph 93 % 0 in
01:51 43.5 °F 41.7 °F 29.5 in SW 11 mph 13 mph 93 % 0 in
01:56 43.5 °F 41.5 °F 29.5 in SSW 10.7 mph 13 mph 92 % 0 in
02:02 32 °F 41.4 °F 0 in SSW 6 mph 12.7 mph 0 % 0 in
02:07 43.3 °F 41.2 °F 29.5 in SSW 9.4 mph 12.1 mph 92 % 0 in
02:12 43.3 °F 41.2 °F 29.5 in SSW 10.1 mph 13.6 mph 92 % 0 in
02:17 43.2 °F 40.8 °F 29.5 in SSW 5.6 mph 13.6 mph 92 % 0 in
02:22 43.2 °F 40.8 °F 29.5 in SSE 5.6 mph 10.7 mph 92 % 0 in
02:27 42.8 °F 40.6 °F 29.5 in SSW 3.4 mph 8.5 mph 92 % 0 in
02:32 42.6 °F 40.5 °F 29.5 in SSW 8.5 mph 8.5 mph 92 % 0 in
02:37 42.4 °F 40.3 °F 29.5 in SSW 5.8 mph 9.2 mph 92 % 0 in
02:42 42.4 °F 40.5 °F 29.5 in South 4.7 mph 9.4 mph 93 % 0 in
02:47 42.3 °F 40.5 °F 29.5 in SW 3.8 mph 9.4 mph 93 % 0 in
02:52 42.1 °F 40.3 °F 29.4 in SSW 6 mph 8.1 mph 93 % 0 in
02:57 42.1 °F 40.3 °F 29.4 in SSW 5.4 mph 7.4 mph 93 % 0 in
03:02 41.9 °F 39.9 °F 29.4 in WSW 4 mph 7.4 mph 93 % 0 in
03:07 41.9 °F 40.3 °F 29.5 in South 3.4 mph 5.8 mph 94 % 0 in
03:12 41.9 °F 40.3 °F 29.5 in SSW 5.8 mph 8.7 mph 94 % 0 in
03:17 41.7 °F 40.1 °F 29.5 in SSW 4.9 mph 8.7 mph 94 % 0 in
03:22 41.7 °F 40.1 °F 29.5 in SSW 5.6 mph 7.4 mph 94 % 0 in
03:27 41.5 °F 39.9 °F 29.5 in South 6.3 mph 7.8 mph 94 % 0 in
03:32 41.4 °F 39.7 °F 29.5 in SSW 6 mph 7.8 mph 94 % 0 in
03:37 41.4 °F 39.7 °F 29.5 in SSW 6 mph 8.7 mph 94 % 0 in
03:42 41.4 °F 39.7 °F 29.5 in SSW 3.4 mph 8.7 mph 94 % 0 in
03:47 41.2 °F 39.6 °F 29.5 in South 4 mph 7.8 mph 94 % 0 in
03:52 41 °F 39.4 °F 29.5 in SSW 4.7 mph 7.8 mph 94 % 0 in
03:57 40.8 °F 39.2 °F 29.5 in South 4.9 mph 6.5 mph 94 % 0 in
04:02 40.6 °F 39.4 °F 29.5 in South 5.4 mph 7.2 mph 95 % 0 in
04:07 40.5 °F 39 °F 29.5 in SSW 4.9 mph 8.5 mph 95 % 0 in
04:12 40.5 °F 39 °F 29.5 in South 3.1 mph 8.5 mph 95 % 0 in
04:17 40.5 °F 39 °F 29.5 in South 2.9 mph 7.8 mph 95 % 0 in
04:22 40.1 °F 38.8 °F 29.5 in SSW 3.8 mph 6.3 mph 95 % 0 in
04:27 40.1 °F 38.8 °F 29.4 in SSE 5.6 mph 9.6 mph 95 % 0 in
04:32 40.1 °F 39 °F 29.4 in South 7.4 mph 9.6 mph 96 % 0 in
04:37 40.1 °F 39 °F 29.4 in SSW 6 mph 7.4 mph 96 % 0 in
04:42 40.1 °F 39 °F 29.4 in South 7.8 mph 8.5 mph 96 % 0 in
04:47 39.9 °F 38.8 °F 29.4 in South 4.9 mph 8.5 mph 96 % 0 in
04:52 39.9 °F 38.8 °F 29.4 in South 5.6 mph 7.2 mph 96 % 0 in
04:57 39.9 °F 38.8 °F 29.4 in SSW 4.9 mph 8.7 mph 96 % 0 in
05:02 39.9 °F 39.2 °F 29.4 in South 3.8 mph 8.7 mph 97 % 0 in
05:07 39.9 °F 39.2 °F 29.4 in South 3.4 mph 7.2 mph 97 % 0 in
05:12 39.7 °F 39 °F 29.4 in South 3.8 mph 7.2 mph 97 % 0 in
05:17 39.7 °F 39 °F 29.4 in SSW 3.6 mph 7.2 mph 97 % 0 in
05:22 39.7 °F 39 °F 29.4 in SSE 4 mph 8.5 mph 97 % 0 in
05:27 39.7 °F 39 °F 29.4 in South 2.9 mph 8.5 mph 97 % 0 in
05:32 39.7 °F 39 °F 29.4 in SSE 3.4 mph 5.8 mph 97 % 0 in
05:37 39.7 °F 39 °F 29.4 in SSE 3.1 mph 6 mph 97 % 0 in
05:42 39.6 °F 38.8 °F 29.4 in South 2.5 mph 7.2 mph 97 % 0 in
05:47 39.6 °F 38.8 °F 29.4 in South 0.9 mph 7.2 mph 97 % 0 in
05:52 39.6 °F 38.8 °F 29.4 in SE 0.9 mph 6.5 mph 97 % 0 in
05:57 39.6 °F 38.8 °F 29.4 in SSE 0.9 mph 6 mph 97 % 0 in
06:02 39.6 °F 38.8 °F 29.4 in SSE 2.7 mph 6.3 mph 97 % 0 in
06:07 39.6 °F 38.8 °F 29.5 in SE 3.6 mph 6.5 mph 97 % 0 in
06:12 39.6 °F 39 °F 29.5 in ESE 4.9 mph 8.5 mph 98 % 0 in
06:17 39.7 °F 39.2 °F 29.5 in SE 4.7 mph 8.5 mph 98 % 0 in
06:22 39.7 °F 39.2 °F 29.4 in SSE 4.3 mph 6.5 mph 98 % 0 in
06:27 39.9 °F 39.4 °F 29.4 in SE 6.3 mph 10.1 mph 98 % 0 in
06:32 40.1 °F 39.6 °F 29.4 in SSE 5.6 mph 10.1 mph 98 % 0 in
06:37 40.3 °F 39.7 °F 29.4 in SE 5.4 mph 7.4 mph 98 % 0 in
06:42 40.3 °F 39.7 °F 29.4 in SE 7.8 mph 7.8 mph 98 % 0 in
06:47 40.5 °F 39.9 °F 29.4 in ESE 4 mph 8.1 mph 98 % 0 in
06:52 40.5 °F 39.9 °F 29.4 in South 3.1 mph 8.1 mph 98 % 0 in
06:57 40.6 °F 40.1 °F 29.4 in ESE 3.8 mph 7.4 mph 98 % 0 in
07:02 40.6 °F 40.1 °F 29.4 in ESE 6.9 mph 6.9 mph 98 % 0 in
07:07 40.8 °F 40.3 °F 29.4 in SSE 6.3 mph 10.7 mph 98 % 0 in
07:12 40.8 °F 40.3 °F 29.4 in SE 4.9 mph 10.7 mph 98 % 0 in
07:17 41 °F 40.5 °F 29.4 in SE 6.5 mph 8.7 mph 98 % 0 in
07:22 41 °F 40.5 °F 29.4 in SE 6.3 mph 8.7 mph 98 % 0 in
07:27 41.2 °F 40.6 °F 29.4 in South 7.8 mph 7.8 mph 98 % 0 in
07:32 41.4 °F 40.8 °F 29.4 in SE 5.6 mph 8.5 mph 98 % 0 in
07:37 41.5 °F 41 °F 29.4 in SE 6.3 mph 8.5 mph 98 % 0 in
07:42 41.5 °F 41 °F 29.4 in ENE 4.9 mph 8.5 mph 98 % 0 in
07:47 41.5 °F 41 °F 29.4 in East 3.8 mph 8.5 mph 98 % 0 in
07:52 41.5 °F 41 °F 29.4 in SE 3.1 mph 8.1 mph 98 % 0 in
07:57 41.4 °F 40.6 °F 29.4 in ESE 3.6 mph 7.4 mph 97 % 0 in
08:02 41.4 °F 40.6 °F 29.4 in ESE 5.4 mph 7.4 mph 97 % 0 in
08:07 41.2 °F 40.5 °F 29.4 in ENE 5.6 mph 7.2 mph 97 % 0 in
08:12 41.2 °F 40.5 °F 29.4 in ESE 5.8 mph 7.2 mph 97 % 0 in
08:17 41 °F 40.3 °F 29.4 in ESE 5.6 mph 7.2 mph 97 % 0 in
08:22 41 °F 40.3 °F 29.4 in East 5.8 mph 6.5 mph 97 % 0 in
08:27 41 °F 40.3 °F 29.4 in East 4.5 mph 6.9 mph 97 % 0 in
08:32 41.2 °F 40.6 °F 29.4 in ESE 5.8 mph 6.9 mph 98 % 0 in
08:37 41.2 °F 40.6 °F 29.4 in ESE 4 mph 6.7 mph 98 % 0 in
08:42 41.4 °F 40.8 °F 29.4 in East 1.1 mph 7.6 mph 98 % 0 in
08:47 41.4 °F 40.8 °F 29.4 in East 5.6 mph 7.6 mph 98 % 0 in
08:52 41.5 °F 41 °F 29.4 in ENE 2.7 mph 6.5 mph 98 % 0 in
08:57 41.5 °F 41 °F 29.4 in East 3.6 mph 5.8 mph 98 % 0 in
09:02 41.7 °F 41.2 °F 29.4 in East 4.9 mph 7.8 mph 98 % 0 in
09:07 41.7 °F 41.2 °F 29.4 in ENE 4 mph 7.8 mph 98 % 0 in
09:12 41.9 °F 41.4 °F 29.4 in ESE 4.3 mph 7.4 mph 98 % 0 in
09:17 41.9 °F 41.4 °F 29.4 in East 2.9 mph 6.5 mph 98 % 0 in
09:22 41.9 °F 41.4 °F 29.4 in East 4.7 mph 6.3 mph 98 % 0 in
09:27 42.1 °F 41.5 °F 29.4 in East 2.7 mph 5.8 mph 98 % 0 in
09:32 42.1 °F 41.4 °F 29.4 in Calm   4.7 mph 97 % 0 in
09:37 42.1 °F 41.4 °F 29.4 in East 2.7 mph 4.3 mph 97 % 0 in
09:42 42.3 °F 41.4 °F 29.4 in ENE 2.5 mph 4.9 mph 97 % 0 in
09:47 42.3 °F 41.4 °F 29.4 in Calm   4.9 mph 97 % 0 in
09:52 42.3 °F 41.4 °F 29.4 in Calm   4.3 mph 97 % 0 in
09:57 42.3 °F 41.4 °F 29.4 in ENE 2.2 mph 4.9 mph 97 % 0 in
09:58 42.3 °F 41.4 °F 29.4 in Calm   4.9 mph 97 % 0 in
10:03 42.4 °F 41.5 °F 29.4 in Calm   4.9 mph 97 % 0 in
10:08 42.4 °F 41.5 °F 29.4 in NE 2.5 mph 3.4 mph 97 % 0 in
10:13 42.4 °F 41.5 °F 29.4 in East 3.1 mph 3.6 mph 97 % 0 in
10:18 42.4 °F 41.5 °F 29.4 in Calm   3.6 mph 97 % 0 in
10:23 42.6 °F 41.7 °F 29.4 in NE 3.1 mph 3.6 mph 97 % 0 in
10:28 42.6 °F 41.7 °F 29.4 in ENE 1.1 mph 4 mph 97 % 0 in
10:33 42.6 °F 41.7 °F 29.4 in NE 3.1 mph 4.7 mph 97 % 0 in
10:38 42.6 °F 41.7 °F 29.4 in NE 3.8 mph 4.7 mph 97 % 0 in
10:43 42.6 °F 41.7 °F 29.4 in NE 4.3 mph 6 mph 97 % 0 in
10:48 42.6 °F 41.7 °F 29.4 in NE 4 mph 6 mph 97 % 0 in
10:53 42.6 °F 41.7 °F 29.4 in NNE 5.4 mph 5.6 mph 97 % 0 in
10:58 42.8 °F 42.1 °F 29.4 in NE 3.4 mph 5.6 mph 97 % 0 in
11:03 42.8 °F 42.1 °F 29.4 in East 4.3 mph 6.5 mph 97 % 0 in
11:08 42.8 °F 42.1 °F 29.4 in NE 4.3 mph 6.5 mph 97 % 0 in
11:13 43 °F 42.1 °F 29.4 in ENE 4.7 mph 5.8 mph 97 % 0 in
11:18 43 °F 42.1 °F 29.4 in ENE 2.5 mph 6.3 mph 97 % 0 in
11:23 43.2 °F 42.3 °F 29.4 in NE 5.6 mph 6.3 mph 97 % 0 in
11:28 43.3 °F 42.4 °F 29.4 in NE 6.3 mph 6.3 mph 97 % 0 in
11:33 43.5 °F 42.6 °F 29.4 in NE 5.8 mph 7.4 mph 97 % 0 in
11:38 43.5 °F 42.6 °F 29.4 in East 5.4 mph 7.4 mph 97 % 0 in
11:43 43.9 °F 43 °F 29.4 in ENE 3.6 mph 6.5 mph 97 % 0 in
11:48 43.9 °F 43 °F 29.4 in NE 4.7 mph 6.5 mph 97 % 0 in
11:53 44.1 °F 43.2 °F 29.4 in ENE 6.3 mph 6.9 mph 97 % 0 in
11:58 44.1 °F 43 °F 29.4 in ENE 6.3 mph 6.9 mph 96 % 0 in
12:03 44.1 °F 43 °F 29.4 in NE 1.1 mph 6.9 mph 96 % 0 in
12:08 44.2 °F 43.2 °F 29.4 in ENE 3.8 mph 6 mph 96 % 0 in
12:13 44.2 °F 43.2 °F 29.4 in ENE 4 mph 6 mph 96 % 0 in
12:18 44.2 °F 43.3 °F 29.4 in East 1.3 mph 6 mph 96 % 0 in
12:23 44.2 °F 43.3 °F 29.4 in ESE 2.9 mph 4 mph 96 % 0 in
12:28 44.2 °F 43 °F 29.4 in ESE 3.8 mph 4 mph 95 % 0 in
12:33 44.2 °F 43.2 °F 29.4 in East 3.8 mph 5.4 mph 96 % 0 in
12:38 44.2 °F 43.2 °F 29.4 in ESE 3.6 mph 5.4 mph 96 % 0 in
12:43 44.1 °F 43 °F 29.4 in Calm   4 mph 96 % 0.01 in
12:45 44.1 °F 43 °F 29.4 in East 2.2 mph 3.6 mph 96 % 0.01 in
12:50 44.1 °F 43 °F 29.4 in Calm   2.9 mph 96 % 0.01 in
12:55 44.1 °F 43 °F 29.4 in Calm   3.6 mph 96 % 0.02 in
13:00 44.1 °F 43 °F 29.4 in ESE 3.6 mph 3.6 mph 96 % 0.02 in
13:05 43.9 °F 42.8 °F 29.4 in SE 3.6 mph 4.3 mph 96 % 0.04 in
13:10 43.5 °F 42.6 °F 29.4 in ESE 5.6 mph 6.3 mph 96 % 0.04 in
13:15 43.3 °F 42.1 °F 29.4 in SE 3.8 mph 6.5 mph 95 % 0.05 in
13:20 43.3 °F 42.1 °F 29.4 in East 3.8 mph 6.5 mph 95 % 0.06 in
13:25 43.2 °F 41.7 °F 29.4 in Calm   5.6 mph 95 % 0.06 in
13:30 43 °F 41.5 °F 29.4 in East 0.9 mph 3.8 mph 95 % 0.07 in
13:35 42.8 °F 41.4 °F 29.4 in East 2 mph 3.1 mph 95 % 0.08 in
13:40 42.8 °F 41.4 °F 29.4 in Calm   2.9 mph 95 % 0.09 in
13:45 42.8 °F 41.7 °F 29.4 in NE 2.2 mph 2.5 mph 96 % 0.08 in
13:50 42.6 °F 41.5 °F 29.4 in NE 0.9 mph 2.5 mph 96 % 0.09 in
13:55 42.6 °F 41.5 °F 29.4 in NE 2.5 mph 4 mph 96 % 0.09 in
14:00 42.6 °F 41.5 °F 29.4 in NE 4 mph 4.3 mph 96 % 0.11 in
14:05 42.4 °F 41.4 °F 29.4 in NE 4 mph 7.4 mph 96 % 0.09 in
14:10 42.3 °F 41.2 °F 29.4 in Calm   7.4 mph 96 % 0.1 in
14:15 42.3 °F 41.2 °F 29.4 in NNE 3.1 mph 6 mph 96 % 0.09 in
14:20 42.3 °F 41.2 °F 29.4 in Calm   6 mph 96 % 0.09 in
14:25 42.3 °F 41.4 °F 29.4 in North 2.9 mph 4.9 mph 97 % 0.08 in
14:30 42.4 °F 41.5 °F 29.4 in Calm   4.3 mph 97 % 0.09 in
14:35 42.4 °F 41.5 °F 29.4 in North 2.5 mph 4.3 mph 97 % 0.09 in
14:40 42.4 °F 41.5 °F 29.4 in North 2.5 mph 4 mph 97 % 0.08 in
14:45 42.3 °F 41.4 °F 29.4 in NE 1.3 mph 4.3 mph 97 % 0.08 in
14:50 42.3 °F 41.4 °F 29.4 in Calm   4.3 mph 97 % 0.07 in
14:55 42.3 °F 41.4 °F 29.4 in Calm   4.3 mph 97 % 0.06 in
15:00 42.1 °F 41.4 °F 29.4 in Calm   3.4 mph 97 % 0.04 in
15:05 42.1 °F 41.4 °F 29.4 in NW 2.2 mph 4.7 mph 97 % 0.06 in
15:10 42.1 °F 41.4 °F 29.4 in WNW 1.6 mph 4.7 mph 97 % 0.05 in
15:15 42.1 °F 41.4 °F 29.4 in NNW 3.1 mph 4 mph 97 % 0.06 in
15:20 41.9 °F 41.2 °F 29.4 in NNE 1.1 mph 4.3 mph 97 % 0.04 in
15:25 41.9 °F 41.2 °F 29.4 in NNW 4 mph 5.4 mph 97 % 0.06 in
15:30 41.9 °F 41.2 °F 29.4 in Calm   5.4 mph 97 % 0.06 in
15:35 41.9 °F 41.2 °F 29.4 in NW 1.3 mph 3.8 mph 97 % 0.05 in
15:40 41.9 °F 41.2 °F 29.4 in West 0.9 mph 3.4 mph 97 % 0.05 in
15:45 41.9 °F 41.2 °F 29.4 in Calm   2.7 mph 97 % 0.06 in
15:50 41.9 °F 41.2 °F 29.4 in WNW 2.9 mph 2.9 mph 97 % 0.06 in
15:55 41.9 °F 41.2 °F 29.4 in Calm   2.9 mph 97 % 0.07 in
16:00 41.9 °F 41.2 °F 29.4 in NW 2.5 mph 3.1 mph 97 % 0.07 in
16:05 41.9 °F 41.2 °F 29.4 in North 2.5 mph 3.4 mph 97 % 0.06 in
16:10 41.9 °F 41.2 °F 29.4 in Calm   3.4 mph 97 % 0.06 in
16:15 41.9 °F 41.2 °F 29.4 in Calm   2.7 mph 97 % 0.05 in
16:20 42.1 °F 41.4 °F 29.4 in Calm   3.1 mph 97 % 0.06 in
16:25 42.1 °F 41.4 °F 29.4 in Calm   3.1 mph 97 % 0.04 in
16:30 42.1 °F 41.4 °F 29.4 in WNW 2.2 mph 3.6 mph 97 % 0.03 in
16:35 42.1 °F 41.4 °F 29.4 in Calm   3.6 mph 97 % 0.03 in
16:40 42.1 °F 41.4 °F 29.4 in Calm   3.6 mph 97 % 0.03 in
16:45 42.1 °F 41.4 °F 29.4 in Calm   2.9 mph 97 % 0.02 in
16:50 42.1 °F 41.4 °F 29.4 in Calm   1.6 mph 97 % 0.02 in
16:55 42.1 °F 41.4 °F 29.5 in WNW 1.6 mph 2.7 mph 97 % 0.01 in
17:00 41.9 °F 41.2 °F 29.5 in West 2.2 mph 3.6 mph 97 % 0.01 in
17:05 41.9 °F 41.2 °F 29.5 in West 3.4 mph 4 mph 97 % 0.01 in
17:10 41.9 °F 41.2 °F 29.5 in WNW 3.4 mph 4.3 mph 97 % 0.01 in
17:15 41.9 °F 41.2 °F 29.5 in North 2 mph 4.3 mph 97 % 0.01 in
17:20 41.9 °F 41.2 °F 29.5 in West 2.7 mph 4.7 mph 97 % 0 in
17:25 41.9 °F 41.2 °F 29.5 in WNW 3.6 mph 4.7 mph 97 % 0 in
17:30 41.9 °F 41.2 °F 29.5 in Calm   3.6 mph 97 % 0 in
17:35 41.9 °F 41.4 °F 29.5 in North 1.1 mph 3.6 mph 98 % 0 in
17:40 41.9 °F 41.4 °F 29.5 in Calm   4 mph 98 % 0 in
17:45 41.9 °F 41.4 °F 29.5 in NNW 1.1 mph 4 mph 98 % 0 in
17:50 41.9 °F 41.4 °F 29.5 in Calm   2.9 mph 98 % 0 in
17:55 41.9 °F 41.4 °F 29.5 in West 2.7 mph 2.9 mph 98 % 0 in
18:00 41.9 °F 41.4 °F 29.5 in WNW 1.6 mph 4.5 mph 98 % 0 in
18:05 41.7 °F 41.2 °F 29.5 in West 2 mph 4.5 mph 98 % 0 in
18:10 41.7 °F 41.2 °F 29.5 in West 3.4 mph 4.9 mph 98 % 0 in
18:15 41.7 °F 41.2 °F 29.5 in WNW 4 mph 4.9 mph 98 % 0 in
18:20 41.7 °F 41.2 °F 29.5 in WSW 3.4 mph 5.8 mph 98 % 0 in
18:25 41.7 °F 41.2 °F 29.5 in West 4.3 mph 6.5 mph 98 % 0 in
18:30 41.7 °F 41.2 °F 29.5 in WSW 5.8 mph 6.5 mph 98 % 0 in
18:35 41.7 °F 41.2 °F 29.5 in West 6.5 mph 6.5 mph 98 % 0 in
18:40 41.7 °F 41.2 °F 29.5 in West 4.7 mph 6.5 mph 98 % 0 in
18:45 41.7 °F 41.2 °F 29.5 in West 3.4 mph 6.5 mph 98 % 0 in
18:50 41.7 °F 41.2 °F 29.5 in West 4.9 mph 6.3 mph 98 % 0 in
18:55 41.7 °F 41.2 °F 29.5 in West 5.4 mph 6.7 mph 98 % 0 in
19:00 41.9 °F 41.4 °F 29.5 in West 9.6 mph 9.6 mph 98 % 0 in
19:05 41.9 °F 41.4 °F 29.5 in WNW 7.8 mph 10.5 mph 98 % 0 in
19:10 42.1 °F 41.5 °F 29.5 in West 5.6 mph 10.5 mph 98 % 0 in
19:15 42.1 °F 41.5 °F 29.5 in WSW 3.4 mph 9.8 mph 98 % 0 in
19:20 42.1 °F 41.5 °F 29.5 in WNW 3.8 mph 9.8 mph 98 % 0 in
19:25 42.1 °F 41.5 °F 29.5 in WNW 5.4 mph 9.6 mph 98 % 0 in
19:30 42.1 °F 41.5 °F 29.5 in West 7.8 mph 8.5 mph 98 % 0.01 in
19:35 42.1 °F 41.5 °F 29.5 in West 8.5 mph 8.5 mph 98 % 0.01 in
19:40 42.1 °F 41.5 °F 29.6 in West 3.8 mph 8.5 mph 98 % 0.01 in
19:45 42.1 °F 41.5 °F 29.6 in West 7.4 mph 8.7 mph 98 % 0.01 in
19:50 42.1 °F 41.5 °F 29.6 in West 2.9 mph 8.7 mph 98 % 0.01 in
19:55 42.1 °F 41.5 °F 29.6 in West 3.8 mph 8.5 mph 98 % 0.01 in
20:00 42.1 °F 41.5 °F 29.6 in WSW 2.5 mph 7.4 mph 98 % 0.01 in
20:05 42.1 °F 41.5 °F 29.6 in West 2.5 mph 7.2 mph 98 % 0.01 in
20:10 41.9 °F 41.4 °F 29.6 in West 5.4 mph 6 mph 98 % 0.01 in
20:15 41.9 °F 41.4 °F 29.6 in West 3.8 mph 6 mph 98 % 0.01 in
20:20 41.5 °F 41 °F 29.6 in West 4.9 mph 5.4 mph 98 % 0.01 in
20:25 41.5 °F 41 °F 29.6 in West 6.3 mph 6.3 mph 98 % 0 in
20:30 41.5 °F 41 °F 29.6 in West 5.6 mph 6.3 mph 98 % 0 in
20:35 41.5 °F 41 °F 29.6 in West 3.4 mph 6.3 mph 98 % 0 in
20:40 41.5 °F 41 °F 29.6 in West 2.5 mph 6.3 mph 98 % 0 in
20:45 41.5 °F 41 °F 29.6 in West 2.7 mph 4.3 mph 98 % 0 in
20:50 41.5 °F 41 °F 29.6 in WSW 5.6 mph 5.8 mph 98 % 0 in
20:55 41.5 °F 41 °F 29.6 in WSW 6.7 mph 8.5 mph 98 % 0 in
21:00 41.7 °F 41.2 °F 29.6 in West 6 mph 8.5 mph 98 % 0 in
21:05 41.9 °F 41.4 °F 29.6 in West 6.5 mph 8.5 mph 98 % 0 in
21:10 41.9 °F 41.4 °F 29.6 in West 4.9 mph 8.5 mph 98 % 0 in
21:15 41.9 °F 41.4 °F 29.6 in WSW 6.9 mph 7.8 mph 98 % 0 in
21:20 42.1 °F 41.5 °F 29.6 in WSW 3.8 mph 7.8 mph 98 % 0 in
21:25 42.1 °F 41.5 °F 29.5 in Calm   6.9 mph 98 % 0 in
21:30 41.9 °F 41.4 °F 29.5 in WSW 2.9 mph 4 mph 98 % 0 in
21:35 41.9 °F 41.4 °F 29.5 in Calm   3.6 mph 98 % 0 in
21:40 41.7 °F 41.2 °F 29.6 in Calm   3.6 mph 98 % 0 in
21:45 41.4 °F 40.8 °F 29.6 in WSW 3.8 mph 3.8 mph 98 % 0 in
21:50 41.2 °F 40.6 °F 29.6 in Calm   3.8 mph 98 % 0 in
21:55 41.2 °F 40.6 °F 29.6 in Calm   4 mph 98 % 0 in
21:56 41.2 °F 40.6 °F 29.6 in Calm   4 mph 98 % 0 in
22:01 41.2 °F 40.6 °F 29.6 in Calm   4 mph 98 % 0 in
22:06 41 °F 40.5 °F 29.6 in Calm   2.7 mph 98 % 0 in
22:11 40.8 °F 40.3 °F 29.6 in Calm   2.7 mph 98 % 0 in
22:16 40.8 °F 40.3 °F 29.6 in Calm   2.2 mph 98 % 0 in
22:21 40.6 °F 40.1 °F 29.6 in SW 2.2 mph 3.8 mph 98 % 0 in
22:26 40.6 °F 40.1 °F 29.6 in Calm   3.8 mph 98 % 0 in
22:31 40.6 °F 40.1 °F 29.6 in South 2.5 mph 3.8 mph 98 % 0 in
22:36 40.3 °F 39.7 °F 29.6 in Calm   2.5 mph 98 % 0 in
22:41 40.1 °F 39.6 °F 29.6 in Calm   2.5 mph 98 % 0 in
22:46 40.1 °F 39.6 °F 29.6 in SW 2.5 mph 4.9 mph 98 % 0 in
22:51 39.9 °F 39.4 °F 29.6 in SW 4 mph 4.9 mph 98 % 0 in
22:56 40.1 °F 39.6 °F 29.6 in SSW 2.5 mph 4.9 mph 98 % 0 in
23:01 40.1 °F 39.6 °F 29.6 in South 1.3 mph 4.9 mph 98 % 0 in
23:06 39.7 °F 39.2 °F 29.6 in Calm   3.4 mph 98 % 0 in
23:11 39.6 °F 39 °F 29.5 in Calm   0.9 mph 98 % 0 in
23:16 39.4 °F 38.8 °F 29.5 in Calm   0.9 mph 98 % 0 in
23:21 39.2 °F 38.7 °F 29.5 in Calm     98 % 0 in
23:26 39 °F 38.5 °F 29.6 in Calm     98 % 0 in
23:31 38.7 °F 38.1 °F 29.6 in Calm   0.9 mph 98 % 0 in
23:36 38.7 °F 38.1 °F 29.6 in Calm   1.1 mph 98 % 0 in
23:41 38.5 °F 37.9 °F 29.6 in Calm   1.1 mph 98 % 0 in
23:46 38.7 °F 38.1 °F 29.6 in Calm   2 mph 98 % 0 in
23:51 38.7 °F 38.1 °F 29.6 in Calm   2 mph 98 % 0 in
23:56 38.7 °F 38.1 °F 29.6 in Calm     98 % 0 in
Le Gheer Warneton
Courtoisie de Weather Underground - 2.25 mb

Mise a jour : 18/12/2017 23:25:11
Généré par Cumulus 1.9.4 (1099)